Regional Weather Roundup
Issued by NWS

Home | Current Version | Previous Version | Graphics & Text | Print | Product List | Glossary On
Versions: 1 2 3 4 5 6 7 8 9 10 11 12 13 14 15 16 17 18 19 20 21 22 23 24 25 26 27 28 29 30 31 32 33 34 35 36 37 38 39 40 41 42 43 44 45 46 47 48 49 50
000
ASUS43 KLOT 170010
RWRIL

ILLINOIS REGIONAL WEATHER ROUNDUP
NATIONAL WEATHER SERVICE CHICAGO/ROMEOVILLE IL
700 PM CDT WED APR 16 2014

NOTE: "FAIR" INDICATES FEW OR NO CLOUDS BELOW 12,000 FEET WITH NO
SIGNIFICANT WEATHER AND/OR OBSTRUCTIONS TO VISIBILITY.

* THESE STATIONS ARE NOT UNDER NWS QUALITY CONTROL. THEY ALSO MAY NOT
  REPORT WEATHER SUCH AS PRECIPITATION OR FOG.

ILZ001-002-007-009-015-016-024-170100-
NORTHWEST ILLINOIS

CITY           SKY/WX    TMP DP  RH WIND       PRES   REMARKS
MOLINE         CLOUDY    53  26  35 S16G26    29.97R
6HR MIN TEMP:  53; 6HR MAX TEMP:  59;

STERLING*      MOCLDY    52  28  40 SE15G25   30.01F
SAVANNA*       CLOUDY    53  27  37 SE21G26   29.99S
$$

ILZ003-004-008-010-011-017-018-170100-
NORTH CENTRAL ILLINOIS

CITY           SKY/WX    TMP DP  RH WIND       PRES   REMARKS
ROCKFORD       CLOUDY    50  28  42 S20G29    30.08S
6HR MIN TEMP:  49; 6HR MAX TEMP:  54;

FREEPORT*      CLOUDY    51  30  44 SE21      30.03S
ROCHELLE*      MOCLDY    49  30  48 SE21      30.06S
DE KALB*       PTCLDY    47  27  45 S17       30.09S
PERU*          MOCLDY    51  29  43 SE21G26   30.06S
$$

ILZ005-006-012>014-019>023-170100-
NORTHEAST ILLINOIS

CITY           SKY/WX    TMP DP  RH WIND       PRES   REMARKS
CHICAGO-OHARE  MOCLDY    50  23  34 SE20G33   30.12F
6HR MIN TEMP:  48; 6HR MAX TEMP:  52;

CHICAGO-MIDWAY MOCLDY    50  24  36 SE18G29   30.14S
6HR MIN TEMP:  48; 6HR MAX TEMP:  52;

AURORA         PTCLDY    50  26  39 SE18G28   30.10S
6HR MIN TEMP:  48; 6HR MAX TEMP:  53;

LANSING*       CLEAR     48  24  38 SE15G22   30.16F
WAUKEGAN       PTCLDY    42  27  55 SE16      30.13F
6HR MIN TEMP:  41; 6HR MAX TEMP:  45;

DUPAGE AIRPORT PTCLDY    50  24  36 SE21G26   30.10F
6HR MIN TEMP:  48; 6HR MAX TEMP:  53;

KANKAKEE*      CLEAR     50  27  41 SE15      30.14F
WHEELING       PTCLDY    50  24  36 SE18G24   30.13F
6HR MIN TEMP:  47; 6HR MAX TEMP:  53;

MORRIS*        CLEAR     52  19  27 SE16G26   30.10S
ROMEOVILLE*    CLEAR     49  24  38 SE22G28   30.12S
NORTHERLY ISL    N/A     47  32  56 SE16        N/A
$$

LMZ740>746-170100-
SOUTHERN LAKE MICHIGAN

STATION/POSITION SKY/WX   TEMP    WIND        PRES    VSBY  WAVE
                          AIR SEA DIR/SP/G                  HT/PER
                          (F)     (DEG/KT/KT) (MB)    (MI)  (FT/S)
WAUKEGAN HARBOR            40     130/ 18/ 22 1021.7S
HARRISON CRIB              46     150/ 23/ 28   N/A
BURNHAM HARBOR             47     140/ 17/ 20   N/A
CALUMET HARBOR             49     140/ 13/ 21 1021.7F
MICHIGAN CITY              48     130/ 15/ 21   N/A
$$

ILZ025>027-034>036-040-047-049-050-058-095>099-170100-
WEST-CENTRAL ILLINOIS

CITY           SKY/WX    TMP DP  RH WIND       PRES   REMARKS
QUINCY         PTCLDY    56  27  32 S12       29.98R
GALESBURG*     MOCLDY    51  30  44 SE15G22   30.00R
MACOMB*        PTCLDY    53  30  41 S18G26    30.02R
JACKSONVILLE*  CLEAR     54  27  36 SE21      30.04S
PITTSFIELD*    PTCLDY    56  25  30 S16G25    30.02R
$$

ILZ028>032-037-038-041>044-048-051>054-059>061-170100-
CENTRAL ILLINOIS

CITY           SKY/WX    TMP DP  RH WIND       PRES   REMARKS
PONTIAC        CLEAR     52  27  37 SE17G26   30.10F
BLOOMINGTON    CLEAR     49  25  39 S24       30.10R
DECATUR        CLEAR     51  27  39 SE20G28   30.11S
PEORIA         PTCLDY    53  24  32 S22G31    30.05S
6HR MIN TEMP:  53; 6HR MAX TEMP:  57;

LACON*         MOCLDY    51  28  41 S18G26    30.05F
LINCOLN*       CLEAR     52  26  37 SE17G26   30.07F
SPRINGFIELD    CLEAR     53  26  35 SE17G32   30.07S
6HR MIN TEMP:  53; 6HR MAX TEMP:  57;

TAYLORVILLE    PTCLDY    50  28  43 SE16G23   30.09S
$$

ILZ033-039-045-046-055>057-062-063-170100-
EAST-CENTRAL ILLINOIS

CITY           SKY/WX    TMP DP  RH WIND       PRES   REMARKS
CHAMPAIGN      CLEAR     50  27  40 SE17      30.13S
RANTOUL*       CLEAR     52  24  34 S13       30.14S
MATTOON        PTCLDY    50  27  40 SE15      30.13S
PARIS*         PTCLDY    50  29  44 SE12      30.17S
$$

ILZ079-100>102-170100-
SOUTHWEST ILLINOIS

CITY           SKY/WX    TMP DP  RH WIND       PRES   REMARKS
BELLEVILLE     PTCLDY    55  22  28 SE17G24   30.07F
CAHOKIA*       CLEAR     54  23  30 S14G23    30.08R
SPARTA*        PTCLDY    54  23  30 S9G20     30.10S
$$

ILZ064>066-069>071-074>076-080>082-084>086-088>090-092>094-170100-
SOUTH-CENTRAL ILLINOIS

CITY           SKY/WX    TMP DP  RH WIND       PRES   REMARKS
CARBONDALE     MOCLDY    54  27  35 SE10      30.13S
6HR MIN TEMP:  52; 6HR MAX TEMP:  57;

CAIRO*         CLOUDY    57  32  37 SE6       30.14S
MARION         CLOUDY    55  28  35 S7        30.14R
MT. VERNON     MOCLDY    54  27  35 SE8       30.14F
CENTRALIA*       N/A     52  28  39 SE10      30.11F
SALEM*         MOCLDY    53  30  41 SE8G18    30.13F
METROPOLIS*    CLOUDY    55  24  30 E3        30.13S
$$

ILZ067-068-072-073-078-083-087-091-170100-
SOUTHEAST ILLINOIS

CITY           SKY/WX    TMP DP  RH WIND       PRES   REMARKS
FAIRFIELD*     CLOUDY    54  30  40 SE12G17   30.15F
HARRISBURG*    CLOUDY    53  34  48 SE6       30.15S
ROBINSON*      MOCLDY    53  28  38 SE9       30.18S
CARMI*         MOCLDY    53  35  50 SE9       30.15S
$$

ABBREVIATIONS USED IN REMARKS
   TC - TEMPERATURE IN CELSIUS
  WCI - WIND CHILL INDEX
   HX - HEAT INDEX
  VSB - VISIBILITY
$$




USA.gov is the U.S. government's official web portal to all federal, state and local government web resources and services.